This is the latest recevied weather packets stored in our database for station/object KE8URB. If no packets are shown the sender has not sent any weather packets the latest 10 day(s).
| Time | Temp. | Humidity | Pressure | Rain* | Wind** | Luminosity | Snow |
|---|---|---|---|---|---|---|---|
| 1787697104 | 24.44° C | 62% | 1018.9 hPa | 0 mm | - | 43 W/m² | - |
| 1787696803 | 25.56° C | 63% | 1019 hPa | 0 mm | - | 91 W/m² | - |
| 1787696500 | 25° C | 64% | 1019.1 hPa | 0 mm | - | 72 W/m² | - |
| 1787696195 | 25° C | 64% | 1019.1 hPa | 0 mm | - | 78 W/m² | - |
| 1787695894 | 25.56° C | 62% | 1019.2 hPa | 0 mm | - | 75 W/m² | - |
| 1787695589 | 25.56° C | 60% | 1019 hPa | 0 mm | - | 213 W/m² | - |
| 1787695286 | 25° C | 63% | 1019.2 hPa | 0 mm | - | 155 W/m² | - |
| 1787694985 | 24.44° C | 66% | 1019.3 hPa | 0 mm | - | 62 W/m² | - |
| 1787694684 | 24.44° C | 64% | 1019.1 hPa | 0 mm | - | 55 W/m² | - |
| 1787694380 | 24.44° C | 62% | 1019.2 hPa | 0 mm | - | 103 W/m² | - |
| 1787694080 | 25° C | 63% | 1019.1 hPa | 0 mm | - | 85 W/m² | - |
| 1787693776 | 25.56° C | 60% | 1019 hPa | 0 mm | - | 98 W/m² | - |
| 1787693472 | 25.56° C | 60% | 1018.9 hPa | 0 mm | - | 140 W/m² | - |
| 1787693168 | 25° C | 63% | 1019 hPa | 0 mm | - | 238 W/m² | - |
| 1787692864 | 24.44° C | 64% | 1019.1 hPa | 0 mm | - | 69 W/m² | - |
| 1787692558 | 24.44° C | 66% | 1019.2 hPa | 0 mm | - | 76 W/m² | - |
| 1787692258 | 25° C | 62% | 1019.1 hPa | 0 mm | - | 150 W/m² | - |
| 1787691953 | 25.56° C | 62% | 1019.1 hPa | 0 mm | - | 265 W/m² | - |
| 1787691652 | 25° C | 66% | 1018.8 hPa | 0 mm | - | 247 W/m² | - |
| 1787691350 | 25° C | 64% | 1019 hPa | 0 mm | - | 211 W/m² | - |
| 1787691045 | 25.56° C | 59% | 1019 hPa | 0 mm | - | 119 W/m² | - |
| 1787690740 | 25.56° C | 65% | 1019.3 hPa | 0 mm | - | 371 W/m² | - |
| 1787690435 | 25.56° C | 62% | 1019 hPa | 0 mm | - | 337 W/m² | - |
| 1787690131 | 25.56° C | 61% | 1019 hPa | 0 mm | - | 384 W/m² | - |
| 1787689827 | 25° C | 66% | 1019 hPa | 0 mm | - | 468 W/m² | - |
* Rain latest hour (hover to see other rain measurements)
** Current wind speed in m/s (hover to see current wind gust speed)